TimeCET,TemperatureF,Dew PointF,Humidity,Sea Level PressureIn,VisibilityMPH,Wind Direction,Wind SpeedMPH,Gust SpeedMPH,PrecipitationIn,Events,Conditions,WindDirDegrees,DateUTC
12:55 AM,28.4,17.6,64,29.86,-9999.0,NW,13.8,-,N/A,,Clear,310,2013-03-21 23:55:00
1:00 AM,28,18,54,,31,NW,13.8,,,,,310,2013-03-22 00:00:00
1:55 AM,26.6,17.6,69,29.83,-9999.0,NNW,16.1,-,N/A,,Clear,330,2013-03-22 00:55:00
2:55 AM,28.4,19.4,69,29.83,-9999.0,NNW,24.2,-,N/A,,Clear,340,2013-03-22 01:55:00
3:55 AM,28.4,23.0,80,29.80,-9999.0,NW,38.0,-,N/A,,Clear,320,2013-03-22 02:55:00
4:55 AM,28.4,24.8,86,29.80,-9999.0,NNW,21.9,-,N/A,,Clear,330,2013-03-22 03:55:00
5:55 AM,28.4,24.8,86,29.80,-9999.0,NNW,17.3,-,N/A,,Clear,330,2013-03-22 04:55:00
6:55 AM,28.4,28.4,100,29.80,0.0,NNW,13.8,-,N/A,Fog,Light Freezing Fog,330,2013-03-22 05:55:00
7:00 AM,28,28,99,,0,NNW,13.8,,,Fog,Heavy Fog,330,2013-03-22 06:00:00
7:55 AM,28.4,28.4,100,29.80,0.1,NNW,18.4,-,N/A,Fog,Light Freezing Fog,330,2013-03-22 06:55:00
8:55 AM,30.2,24.8,80,29.80,-9999.0,NNW,17.3,-,N/A,,Clear,330,2013-03-22 07:55:00
9:55 AM,32.0,30.2,93,29.83,-9999.0,NW,9.2,-,N/A,,Clear,320,2013-03-22 08:55:00
10:55 AM,32.0,30.2,93,29.83,-9999.0,Calm,Calm,-,N/A,,Clear,0,2013-03-22 09:55:00
11:55 AM,33.8,30.2,87,29.83,6.2,Calm,Calm,-,N/A,,Partly Cloudy,360,2013-03-22 10:55:00
12:55 PM,33.8,32.0,93,29.83,6.2,Calm,Calm,-,N/A,,Mostly Cloudy,0,2013-03-22 11:55:00
1:00 PM,34,31,85,,31,Calm,Calm,,,,Partly Cloudy,,2013-03-22 12:00:00
1:55 PM,33.8,32.0,93,29.83,6.2,Calm,Calm,-,N/A,,Mostly Cloudy,0,2013-03-22 12:55:00
2:55 PM,33.8,32.0,93,29.83,6.2,West,4.6,-,N/A,,Scattered Clouds,260,2013-03-22 13:55:00
3:55 PM,33.8,33.8,100,29.83,6.2,Calm,Calm,-,N/A,,Mostly Cloudy,0,2013-03-22 14:55:00
4:55 PM,33.8,33.8,100,29.83,0.0,Calm,Calm,-,N/A,Fog,Fog,0,2013-03-22 15:55:00
5:55 PM,33.8,33.8,100,29.83,0.0,WSW,8.1,-,N/A,Fog,Fog,250,2013-03-22 16:55:00
6:55 PM,33.8,26.6,75,29.83,-9999.0,WSW,6.9,-,N/A,,Clear,250,2013-03-22 17:55:00
7:00 PM,33,27,70,,31,WSW,6.9,,,,Partly Cloudy,250,2013-03-22 18:00:00
7:55 PM,33.8,24.8,70,29.83,-9999.0,West,9.2,-,N/A,,Clear,260,2013-03-22 18:55:00
8:55 PM,33.8,26.6,75,29.83,-9999.0,WSW,16.1,-,N/A,,Clear,250,2013-03-22 19:55:00
9:55 PM,33.8,26.6,75,29.83,-9999.0,West,13.8,-,N/A,,Clear,260,2013-03-22 20:55:00
10:55 PM,33.8,28.4,81,29.83,-9999.0,WSW,11.5,-,N/A,,Clear,250,2013-03-22 21:55:00
11:55 PM,32.0,28.4,87,29.83,-9999.0,West,12.7,-,N/A,,Clear,260,2013-03-22 22:55:00